Location: Waltman Observatory
(32.5145°N, 90.4450°W)
Time: 06:59:27
(UTC-05:00)

Amateur Radio Satellites - All Passes

Search period start: 21 October 2014 06:29
Search period end: 22 October 2014 06:29
Location: Waltman Observatory, 32.5145°N, 90.4450°W

Satellite Date Start Highest point End Downlink Frequencies (MHz)
Time Altitude Azimuth
Uosat F 21 Oct 07:02:09 07:03:35 11° 296° (WNW) 07:05:01 435.120 FM
STRAND 1 21 Oct 07:25:40 07:30:43 64° 258° (WSW) 07:35:50 ?
Hamsat 21 Oct 07:40:07 07:43:21 22° 289° (WNW) 07:46:36 145.90 MHz
JAS-2 21 Oct 07:53:47 08:00:06 29° 294° (WNW) 08:06:30 435.800 - 435.900 CW/SSB, 435.910 FM
RS-15 21 Oct 08:03:49 08:14:51 58° 57° (ENE) 08:26:18 29.354 - 29.394 USB, Beacon 29.352 USB
PANSAT 21 Oct 08:25:07 08:27:41 17° 159° (SSE) 08:30:15 not established
SO-67 21 Oct 08:34:33 08:37:37 30° 286° (WNW) 08:40:40 435.3500 MHz FM
Saudisat 1A 21 Oct 08:39:17 08:43:40 84° 298° (WNW) 08:48:04 436.775 MHz
HO-68 21 Oct 09:39:55 09:46:56 53° 102° (ESE) 09:53:53 435.675 MHz FM
Oscar 11 21 Oct 09:41:41 09:43:50 14° 94° (E) 09:46:00 145.825 FM, Beacon 2401.500 USB
PANSAT 21 Oct 10:03:51 10:07:25 38° 171° (S) 10:10:59 not established
RS-15 21 Oct 10:16:54 10:26:40 36° 254° (WSW) 10:36:51 29.354 - 29.394 USB, Beacon 29.352 USB
ZACube-1 21 Oct 10:19:27 10:21:49 15° 94° (E) 10:24:10 437.345 MHz
UKube-1 21 Oct 10:30:41 10:35:02 63° 101° (ESE) 10:39:20 145.840 MHz, 145.915 MHz
MaSat-1 21 Oct 10:32:38 10:35:01 33° 64° (ENE) 10:37:14 437.345 MHz
FUNcube-1 21 Oct 11:03:39 11:07:50 53° 100° (E) 11:11:54 145.950 - 145.970 MHz USB
Oscar 11 21 Oct 11:16:08 11:20:07 38° 287° (WNW) 11:24:06 145.825 FM, Beacon 2401.500 USB
HO-68 21 Oct 11:28:34 11:34:09 25° 297° (WNW) 11:39:44 435.675 MHz FM
PANSAT 21 Oct 11:43:39 11:47:19 44° 184° (S) 11:50:59 not established
ZACube-1 21 Oct 11:54:27 11:58:19 34° 287° (WNW) 12:02:05 437.345 MHz
KITSAT 1 21 Oct 12:43:10 12:51:06 65° 112° (ESE) 12:59:04 435.175 FM
Oscar 16 21 Oct 12:44:56 12:48:18 18° 67° (ENE) 12:51:39 437.025 USB, Beacon 2401.1428
ISS 21 Oct 12:58:33 13:01:12 22° 128° (SE) 13:03:51 145.800 FM
AO-Echo 21 Oct 13:11:43 13:14:13 14° 65° (ENE) 13:16:45 ?
PANSAT 21 Oct 13:23:57 13:27:09 25° 196° (SSW) 13:30:20 not established
SO-50 21 Oct 13:25:34 13:29:47 44° 114° (ESE) 13:34:07 436.795 FM
Sapphire 21 Oct 13:34:05 13:38:08 21° 54° (NE) 13:42:09 437.095 MHz 1200 baud AX-25 AFSK
Oscar 19 21 Oct 13:37:02 13:42:06 59° 74° (ENE) 13:47:10 437.125 CW, 437.150 USB
AO-27 21 Oct 13:45:57 13:50:20 28° 69° (ENE) 13:54:44 436.795 MHz FM
PCSat 21 Oct 13:56:25 14:01:23 35° 59° (ENE) 14:06:18 145.825 MHz
JAS-1B 21 Oct 14:02:13 14:08:37 81° 75° (ENE) 14:14:22 435.800 - 435.900 CW/SSB
Oscar 16 21 Oct 14:22:18 14:27:14 45° 260° (W) 14:32:11 437.025 USB, Beacon 2401.1428
Oscar 10/S400 21 Oct 14:33:29 14:52:52 58° 158° (SSE) 15:19:55 145.825 - 145.975 CW/USB, Beacon 145.810 USB
Uribyol 2 21 Oct 14:34:40 14:39:52 86° 257° (WSW) 14:45:08 436.500 FM
ISS 21 Oct 14:34:56 14:37:47 26° 322° (NW) 14:40:39 145.800 FM
Gurwin Techsat 1B 21 Oct 14:37:39 14:42:41 46° 73° (ENE) 14:47:44 435.225 FM
ITAMSAT 1 21 Oct 14:39:44 14:44:55 83° 257° (WSW) 14:50:10 435.822 SSB
KITSAT 1 21 Oct 14:40:31 14:47:00 26° 310° (NW) 14:53:31 435.175 FM
AO-Echo 21 Oct 14:47:49 14:52:27 50° 260° (W) 14:57:16 ?
TMSAT-1 21 Oct 14:51:23 14:56:24 45° 73° (ENE) 15:01:26 436.925 FM
SO-50 21 Oct 15:07:39 15:10:33 17° 310° (NW) 15:13:30 436.795 FM
UOSAT-12 21 Oct 15:09:32 15:13:55 46° 114° (ESE) 15:18:24 437.025 FM, 437.400 FM
Sapphire 21 Oct 15:16:34 15:21:44 45° 250° (WSW) 15:26:51 437.095 MHz 1200 baud AX-25 AFSK
Oscar 19 21 Oct 15:19:39 15:21:44 12° 267° (W) 15:23:49 437.125 CW, 437.150 USB
AO-27 21 Oct 15:25:20 15:29:43 28° 263° (W) 15:34:09 436.795 MHz FM
AO-7 21 Oct 15:30:36 15:37:51 36° 64° (ENE) 15:45:07 29.400 - 29.500 MHz
PCSat 21 Oct 15:40:13 15:44:33 25° 253° (WSW) 15:48:52 145.825 MHz
Gurwin Techsat 1B 21 Oct 16:19:23 16:22:48 17° 266° (W) 16:26:14 435.225 FM
JAS-2 21 Oct 16:20:17 16:21:51 11° 58° (ENE) 16:23:27 435.800 - 435.900 CW/SSB, 435.910 FM
Uosat F 21 Oct 16:29:06 16:34:00 59° 74° (ENE) 16:38:56 435.120 FM
TMSAT-1 21 Oct 16:33:01 16:36:28 18° 266° (W) 16:39:56 436.925 FM
AO-40 21 Oct 16:33:24 23:28:48 51° 183° (S) 05:38:05 Beacon 2401.320
UOSAT-12 21 Oct 16:51:13 16:54:17 17° 310° (NW) 16:57:23 437.025 FM, 437.400 FM
Saudisat 1A 21 Oct 17:10:55 17:14:21 22° 53° (NE) 17:17:45 436.775 MHz
AO-7 21 Oct 17:22:38 17:30:22 44° 259° (W) 17:38:10 29.400 - 29.500 MHz
JAS-2 21 Oct 18:00:10 18:05:45 87° 257° (WSW) 18:12:05 435.800 - 435.900 CW/SSB, 435.910 FM
OPAL 21 Oct 18:02:24 18:07:18 59° 103° (ESE) 18:12:09 ?
Uosat F 21 Oct 18:11:14 18:13:05 12° 267° (W) 18:14:55 435.120 FM
Hamsat 21 Oct 18:27:50 18:31:59 55° 260° (W) 18:36:08 145.90 MHz
Saudisat 1A 21 Oct 18:50:01 18:53:54 31° 248° (WSW) 18:57:46 436.775 MHz
SO-67 21 Oct 19:02:25 19:05:32 34° 75° (ENE) 19:08:41 435.3500 MHz FM
STRAND 1 21 Oct 19:40:55 19:46:02 64° 102° (ESE) 19:51:07 ?
OPAL 21 Oct 19:43:24 19:45:37 13° 297° (WNW) 19:47:51 ?
HO-68 21 Oct 20:04:41 20:10:14 25° 63° (ENE) 20:15:49 435.675 MHz FM
KITSAT 1 21 Oct 20:43:29 20:47:51 15° 42° (NE) 20:52:12 435.175 FM
ISS 21 Oct 21:06:44 21:09:53 38° 40° (NE) 21:13:01 145.800 FM
UKube-1 21 Oct 21:21:57 21:25:44 30° 71° (ENE) 21:29:31 145.840 MHz, 145.915 MHz
STRAND 1 21 Oct 21:22:27 21:24:37 13° 296° (WNW) 21:26:46 ?
HO-68 21 Oct 21:50:32 21:57:27 53° 258° (WSW) 22:04:27 435.675 MHz FM
FUNcube-1 21 Oct 21:55:34 21:59:23 26° 71° (ENE) 22:03:11 145.950 - 145.970 MHz USB
SO-50 21 Oct 22:02:35 22:05:19 15° 49° (NE) 22:08:05 436.795 FM
Oscar 11 21 Oct 22:06:00 22:10:21 89° 78° (ENE) 22:14:42 145.825 FM, Beacon 2401.500 USB
RS-15 21 Oct 22:21:22 22:32:06 58° 111° (ESE) 22:42:38 29.354 - 29.394 USB, Beacon 29.352 USB
KITSAT 1 21 Oct 22:36:33 22:44:38 74° 63° (ENE) 22:52:41 435.175 FM
ISS 21 Oct 22:44:25 22:46:18 14° 234° (SW) 22:48:12 145.800 FM
ZACube-1 21 Oct 22:45:16 22:49:53 80° 258° (WSW) 22:54:29 437.345 MHz
UKube-1 21 Oct 22:58:54 23:01:54 18° 264° (W) 23:04:55 145.840 MHz, 145.915 MHz
FUNcube-1 21 Oct 23:31:57 23:35:38 24° 264° (W) 23:39:18 145.950 - 145.970 MHz USB
SO-50 21 Oct 23:41:27 23:46:15 61° 245° (WSW) 23:51:04 436.795 FM
UOSAT-12 21 Oct 23:45:01 23:47:23 14° 48° (NE) 23:49:43 437.025 FM, 437.400 FM
MaSat-1 22 Oct 00:04:50 00:08:57 40° 109° (ESE) 00:12:46 437.345 MHz
KITSAT 1 22 Oct 00:34:01 00:39:09 19° 258° (WSW) 00:44:17 435.175 FM
RS-15 22 Oct 00:34:57 00:44:46 36° 311° (NW) 00:54:36 29.354 - 29.394 USB, Beacon 29.352 USB
UOSAT-12 22 Oct 01:23:17 01:27:56 63° 244° (WSW) 01:32:28 437.025 FM, 437.400 FM
MaSat-1 22 Oct 01:42:27 01:44:44 14° 300° (WNW) 01:46:56 437.345 MHz
JAS-1B 22 Oct 01:49:46 01:55:42 30° 99° (E) 02:02:32 435.800 - 435.900 CW/SSB
Oscar 19 22 Oct 01:53:44 01:58:13 30° 97° (E) 02:02:40 437.125 CW, 437.150 USB
AO-27 22 Oct 02:04:47 02:07:34 14° 93° (E) 02:10:21 436.795 MHz FM
Oscar 16 22 Oct 02:38:25 02:43:34 87° 284° (WNW) 02:48:40 437.025 USB, Beacon 2401.1428
Uribyol 2 22 Oct 02:52:17 02:57:20 50° 100° (E) 03:02:20 436.500 FM
ITAMSAT 1 22 Oct 02:57:26 03:02:32 52° 101° (E) 03:07:36 435.822 SSB
Gurwin Techsat 1B 22 Oct 02:58:58 03:03:25 27° 97° (E) 03:07:50 435.225 FM
AO-Echo 22 Oct 02:59:09 03:04:29 76° 102° (ESE) 03:09:46 ?
RS-15 22 Oct 03:00:41 03:01:53 10° 343° (NNW) 03:03:05 29.354 - 29.394 USB, Beacon 29.352 USB
TMSAT-1 22 Oct 03:12:21 03:16:45 26° 96° (E) 03:21:07 436.925 FM
Oscar 19 22 Oct 03:33:16 03:37:22 25° 291° (WNW) 03:41:28 437.125 CW, 437.150 USB
JAS-1B 22 Oct 03:40:00 03:46:13 43° 288° (WNW) 03:53:33 435.800 - 435.900 CW/SSB
AO-7 22 Oct 03:40:01 03:43:22 13° 92° (E) 03:46:42 29.400 - 29.500 MHz
AO-27 22 Oct 03:42:14 03:47:19 53° 287° (WNW) 03:52:22 436.795 MHz FM
Sapphire 22 Oct 04:10:27 04:15:33 45° 110° (ESE) 04:20:42 437.095 MHz 1200 baud AX-25 AFSK
PCSat 22 Oct 04:33:01 04:38:24 83° 114° (ESE) 04:43:50 145.825 MHz
Uribyol 2 22 Oct 04:33:11 04:36:20 16° 294° (WNW) 04:39:29 436.500 FM
ITAMSAT 1 22 Oct 04:38:31 04:41:32 16° 295° (WNW) 04:44:32 435.822 SSB
Gurwin Techsat 1B 22 Oct 04:38:43 04:43:17 30° 290° (WNW) 04:47:51 435.225 FM
AO-Echo 22 Oct 04:40:56 04:42:31 11° 296° (WNW) 04:44:07 ?
Uosat F 22 Oct 04:42:00 04:46:13 26° 97° (E) 04:50:24 435.120 FM
TMSAT-1 22 Oct 04:52:00 04:56:35 31° 290° (WNW) 05:01:09 436.925 FM
OPAL 22 Oct 05:12:38 05:17:45 64° 73° (ENE) 05:22:50 ?
JAS-2 22 Oct 05:14:45 05:20:20 21° 92° (E) 05:25:53 435.800 - 435.900 CW/SSB, 435.910 FM
RS-15 22 Oct 05:18:10 05:22:09 12° 23° (NNE) 05:26:10 29.354 - 29.394 USB, Beacon 29.352 USB
AO-7 22 Oct 05:28:36 05:36:58 86° 107° (ESE) 05:45:19 29.400 - 29.500 MHz
Sapphire 22 Oct 05:55:08 05:59:09 21° 306° (NW) 06:03:12 437.095 MHz 1200 baud AX-25 AFSK
Hamsat 22 Oct 06:18:07 06:21:57 34° 98° (E) 06:25:46 145.90 MHz
PCSat 22 Oct 06:20:15 06:22:27 12° 311° (NW) 06:24:39 145.825 MHz
Uosat F 22 Oct 06:20:37 06:24:52 28° 290° (WNW) 06:29:07 435.120 FM
